Regional Weather Roundup
Issued by NWS Northern Indiana

Home | Current Version | Previous Version | Text Only | Print | Product List | Glossary On
Versions: 1 2 3 4 5 6 7 8 9 10 11 12 13 14 15 16 17 18 19 20 21 22 23 24 25 26 27 28 29 30 31 32 33 34 35 36 37 38 39 40 41 42 43 44 45 46 47 48 49 50
000
ASUS43 KIWX 230510
RWRIWX

KIWX WEATHER ROUNDUP
NATIONAL WEATHER SERVICE NORTHERN INDIANA
100 AM EDT WED AUG 23 2017

NOTE: "FAIR" INDICATES FEW OR NO CLOUDS BELOW 12,000 FEET WITH NO
SIGNIFICANT WEATHER AND/OR OBSTRUCTIONS TO VISIBILITY.

* THESE STATIONS ARE NOT UNDER NWS QUALITY CONTROL. THEY ALSO MAY NOT
  REPORT WEATHER SUCH AS PRECIPITATION OR FOG.

INZ001>027-230600-
NORTHERN INDIANA

CITY           SKY/WX    TMP DP  RH WIND       PRES   REMARKS
GARY*          CLEAR     69  47  46 NW9       30.02R
VALPARAISO     CLEAR     63  56  78 W6        30.01R
MICHIGAN CITY* CLEAR     68  50  52 NW6       30.00R
LAPORTE*       PTCLDY    61  57  87 W5        30.01R
KNOX*          PTCLDY    57  55  94 SW3       30.00R
SOUTH BEND     CLEAR     60  59  96 CALM      30.00R
GOSHEN         CLEAR     57  54  89 CALM      29.98S
MONTICELLO*    CLEAR     61  60  96 CALM      30.00S
LOGANSPORT*    CLEAR     61  59  94 CALM      30.01S
ROCHESTER*     CLEAR     63  61  94 CALM      30.01R
WARSAW*        PTCLDY    59  57  94 CALM      29.99S
AUBURN*        PTCLDY    59  54  82 CALM      29.99R
FORT WAYNE     PTCLDY    60  56  86 W5        29.99R
HUNTINGTON*    CLEAR     60  58  95 CALM      29.99R
PERU/GRISSOM   CLEAR     62  60  93 CALM      29.99R
MARION*        CLEAR     59  57  94 CALM      30.00R

$$
INZ028>050-230600-
CENTRAL INDIANA

CITY           SKY/WX    TMP DP  RH WIND       PRES   REMARKS
LAFAYETTE      CLEAR     62  59  90 W3        30.00R
KOKOMO*        PTCLDY    63  59  87 NW3       30.01R
MUNCIE*        PTCLDY    62  59  90 CALM      29.99R
INDIANAPOLIS   CLEAR     65  60  84 NW7       29.99R

$$
MIZ043>046-050>051-056>058-064>065-071>073-077>080-230600-
SOUTHWEST LOWER MICHIGAN

CITY           SKY/WX    TMP DP  RH WIND       PRES   REMARKS
BATTLE CREEK   CLEAR     59  55  87 SW7       29.97R
BENTON HARBOR  CLEAR     70  49  47 W7        29.97R
COLDWATER*     CLEAR     56  56  97 SW5       29.97R
HILLSDALE*     CLEAR     55  52  88 W3        29.96S
HOLLAND        PTCLDY    69  52  54 NW7       29.95R
GRAND RAPIDS   PTCLDY    61  55  81 SW7       29.94R
KALAMAZOO      PTCLDY    60  54  80 W7        29.97R
STURGIS*       CLEAR     56  55  98 CALM      29.97S
THREE RIVERS*  FAIR      59  56  92 CALM      29.98R

$$
OHZ001>008-015>018-024>025-230600-
NORTHWEST OHIO

CITY           SKY/WX    TMP DP  RH WIND       PRES   REMARKS
WAUSEON*       FAIR      57  54  88 W6        29.95R
DEFIANCE       CLEAR     61  53  75 W3        29.96R
FINDLAY        CLEAR     63  53  70 W7        29.95R
TOLEDO EXPRESS CLEAR     61  55  81 W7        29.94R
TOLEDO METCALF CLEAR     61  55  81 W6        29.94R
LIMA           CLEAR     60  58  92 NW6       29.97R

$$
AND FOR LAKE MICHIGAN COASTAL AND OPEN LAKE BUOY OBSERVATIONS

STATION/POSITION TEMP    WIND        PRES    VSBY  WAVE
                 AIR SEA DIR/SP/G                  HT/PER
                 (F)     (DEG/KT/KT) (MB)    (MI)  (FT/S)
CALUMET HARBOR    69     290/  5/  7 1015.5R
MICHIGAN CITY     71     310/ 19/ 21   N/A
BURNS HARBOR      72     320/ 15/ 19 1015.6S
SAINT JOSEPH      73     310/ 12/ 17 1015.6
SOUTH LAKE BUOY   71 71  320/ 16/ 19 1013.9          4/ 5
4 MI NW BRIDGMAN  72 73  340/ 16/ 19 1015.1          5/ 6
MICHIGAN CITY     72 74  320/ 16/ 21   N/A           6/ 5

$$
&&




USA.gov is the U.S. government's official web portal to all federal, state and local government web resources and services.